Regional Weather Roundup
Issued by NWS Newport/Morehead, NC

Current Version | Previous Version | Text Only | Print | Product List | Glossary On
Versions: 1 2 3 4 5 6 7 8 9 10 11 12 13 14 15 16 17 18 19 20 21 22 23 24 25 26 27 28 29 30 31 32 33 34 35 36 37 38 39 40 41 42 43 44 45 46 47 48 49 50
000 ASUS42 KMHX 300610 RWRMHX WEATHER ROUNDUP FOR EASTERN NORTH CAROLINA NATIONAL WEATHER SERVICE NEWPORT/MOREHEAD CITY NC 200 AM EDT WED JUL 30 2014 NOTE: "FAIR" INDICATES FEW OR NO CLOUDS BELOW 12,000 FEET WITH NO SIGNIFICANT WEATHER AND/OR OBSTRUCTIONS TO VISIBILITY NCZ015>017-031-032-045>047-102-103-300700- NORTH COAST CITY SKY/WX TMP DP RH WIND PRES REMARKS EDENTON CLEAR 65 63 92 CALM 29.99F ELIZABETH CITY CLEAR 67 61 81 CALM 29.99F KITTY HAWK CLEAR 72 60 64 CALM 29.97F MANTEO NOT AVBL $$ NCZ045>047-081-094-103-104-300700- CENTRAL COAST CITY SKY/WX TMP DP RH WIND PRES REMARKS FRISCO PTCLDY 74 64 71 NE6 29.97F SWANQUARTER N/A 70 N/A N/A NE2 29.94S $$ NCZ095-097-098-100-101-300700- SOUTHERN COAST CITY SKY/WX TMP DP RH WIND PRES REMARKS BEAUFORT CLOUDY 75 66 73 NE6 29.97F CEDAR ISLAND N/A 77 N/A N/A NE3G16 30.00F JACKSONVILLE CLEAR 74 68 81 E8 29.97F NEWPORT NOT AVBL PINEY ISLAND CLOUDY 78 67 68 NE9 29.97S WILMINGTON CLEAR 70 69 97 CALM 29.96F $$ NCZ011>013-027>030-043-044-078>080-089-090>093-098-300700- COASTAL PLAIN CITY SKY/WX TMP DP RH WIND PRES REMARKS AHOSKIE CLEAR 62 60 93 CALM 30.00S CLINTON CLEAR 67 63 87 CALM 29.98S ELIZABETHTOWN CLEAR 68 64 88 CALM 29.98S GOLDSBORO CLEAR 66 65 97 E3 29.96F GREENVILLE CLEAR 68 64 88 CALM 30.00F HAVELOCK MOCLDY 71 67 87 CALM 29.98F KENANSVILLE CLEAR 63 61 93 CALM 29.99S KINSTON CLEAR 67 64 90 CALM 29.99F NEW BERN CLEAR 73 65 75 E5 29.99F RICHLANDS CLEAR 66 63 88 CALM 29.98S ROANOKE RAPIDS NOT AVBL ROCKY MOUNT CLEAR 63 60 90 CALM 29.99F WASHINGTON CLEAR 66 63 91 CALM 29.99F WHITEVILLE CLEAR 69 66 90 CALM 29.97S $$ AMZ130-135-150-152-154-156-158-170-250-252-270-ANZ085-086-088-633-658-670-300700- MARINE OBSERVATIONS STATION/POSITION TIME TEMP WIND PRES WAVE SWELL AIR SEA DIR/SP/G HT/PER HT/PER (UTC) (F) (DEG/KT/KT) (MB) (FT/S) (FT/S) CHESAPEAKE LIGHT NOT AVBL BUOY 44014 0600 74 78 30/ 6/ 8 1014.9 2/ 8 2/ 8 DUCK 0600 74 75 70/ 7/ 9 1014.6 2E DUCK 0600 N/A 2/ 7 OREGON INLET 0600 74 80 40/ 6/ 8 1015.0 BUOY 44095 0600 78 N/A 3/ 7 20E OREGON INLET NOT AVBL HATTERAS CG 0600 75 81 60/ 5/ 9 1015.2 DIAMOND BUOY 0600 VRB 14/ 16 1014.3 4/ 8 2/ 8 CAPE LOOKOUT 0500 78 60/ 13/ 15 1014.7 BEAUFORT LAB 0600 75 82 40/ 3/ 5 1014.4 30 SE NEW RIVER 0600 79 81 70/ 12/ 14 1014.7 4/ 6 2/ 6 5 SE WRIGHTSVILL 0500 74 82 80/ 12/ 14 N/A BUOY 41002 0550 81 80 220/ 17/ 19 1013.6 6/ 7 2/14 BUOY 41004 0600 81 84 60/ 6/ 8 1013.5 2/ 8 2/ 8 $$

USA.gov is the U.S. government's official web portal to all federal, state and local government web resources and services.